• Join FlightAware (Why Join?)
  • Login
  • US Flag 
12:33PM EDT


 

Airport Tracker/Info


-or-


 

Live Flight TrackerFlight Track Log ✈ N522PK ✈ 26-Sep-2013 ✈ KGFK - KDLH

Flight Track Log - Related Links

Times and Time Zones

All times are in EDT time to prevent confusion due to time zone crossing. See the N522PK flight status page for this flight to view local times or setup timezone preferences in your user account.

Time Position Orientation Groundspeed Altitude Reporting Facility
EDT Latitude Longitude Course Direction KTS MPH feet Rate Location/Type
04:23PM 47.9390 -97.1660 181° South 98 113 1,300  Level FlightAware
04:23PM 47.9280 -97.1660 180° South 100 115 1,700 1,020 Climbing FlightAware
04:23PM 47.9260 -97.1640 146° Southeast 102 117 1,800 1,500 Climbing FlightAware
04:24PM 47.9230 -97.1590 132° Southeast 113 130 2,000 1,080 Climbing FlightAware
04:24PM 47.9210 -97.1540 121° Southeast 120 138 2,100 720 Climbing FlightAware
04:24PM 47.9200 -97.1470 102° East 127 146 2,200 840 Climbing FlightAware
04:24PM 47.9190 -97.1300 95° East 136 157 2,500 900 Climbing FlightAware
04:25PM 47.9180 -97.1090 94° East 140 161 2,800 900 Climbing FlightAware
04:25PM 47.9170 -97.0850 94° East 147 169 3,200 600 Climbing FlightAware
04:25PM 47.9160 -97.0700 96° East 158 182 3,200 300 Level FlightAware
04:26PM 47.9150 -97.0450 93° East 166 191 3,400 300 Climbing FlightAware
04:26PM 47.9150 -97.0280 90° East 175 201 3,400 480 Level FlightAware
04:26PM 47.9150 -97.0020 90° East 162 186 3,700 1,080 Climbing FlightAware
04:27PM 47.9150 -96.9740 90° East 147 169 4,300 1,260 Climbing FlightAware
04:27PM 47.9130 -96.9600 102° East 132 152 4,600 1,200 Climbing FlightAware
04:27PM 47.9100 -96.9420 104° East 134 154 5,000 900 Climbing FlightAware
04:28PM 47.9060 -96.9210 106° East 142 163 5,300 900 Climbing FlightAware
04:28PM 47.9020 -96.9010 107° East 139 160 5,700 1,200 Climbing FlightAware
04:28PM 47.8980 -96.8840 109° East 137 158 6,100 1,020 Climbing FlightAware
04:29PM 47.8940 -96.8650 107° East 144 166 6,400 780 Climbing FlightAware
04:29PM 47.8890 -96.8420 108° East 148 170 6,700 720 Climbing FlightAware
04:29PM 47.8850 -96.8270 112° Southeast 150 173 6,900 960 Climbing FlightAware
04:30PM 47.8790 -96.8010 109° East 151 174 7,400 900 Climbing FlightAware
04:30PM 47.8760 -96.7820 103° East 156 180 7,600 720 Climbing FlightAware
04:30PM 47.8710 -96.7600 109° East 154 177 7,900 900 Climbing FlightAware
04:31PM 47.8660 -96.7410 111° Southeast 152 175 8,200 660 Climbing FlightAware
04:31PM 47.8610 -96.7180 108° East 165 190 8,400 600 Climbing FlightAware
04:31PM 47.8570 -96.6990 107° East 169 194 8,600 780 Climbing FlightAware
04:32PM 47.8520 -96.6780 110° East 170 196 8,900 900 Climbing FlightAware
04:32PM 47.8460 -96.6490 107° East 174 200 9,300 900 Climbing FlightAware
04:33PM 47.8370 -96.6070 108° East 179 206 9,800 840 Climbing FlightAware
04:33PM 47.8290 -96.5670 107° East 178 205 10,300 840 Climbing FlightAware
04:34PM 47.8210 -96.5280 107° East 176 203 10,800 360 Climbing FlightAware
04:34PM 47.8130 -96.4890 107° East 176 203 10,800  Level FlightAware
04:35PM 47.8060 -96.4560 108° East 176 203 10,800  Level FlightAware
04:36PM 47.8000 -96.4220 105° East 176 203 10,800 120 Level FlightAware
04:36PM 47.7861 -96.3578 105° East 199 229 11,000 120 Climbing Minneapolis Center
04:37PM 47.7683 -96.2744 108° East 209 241 11,000 -60 Level Minneapolis Center
04:38PM 47.7514 -96.1972 108° East 202 232 10,900  Descending Minneapolis Center
04:39PM 47.7353 -96.1239 108° East 192 221 11,000  Climbing Minneapolis Center
04:40PM 47.7203 -96.0525 107° East 185 213 11,000 -60 Level Minneapolis Center
04:41PM 47.7011 -95.9639 108° East 187 215 10,900 -120 Descending Minneapolis Center
04:42PM 47.6878 -95.8908 105° East 185 213 10,800 -60 Descending Minneapolis Center
04:43PM 47.6717 -95.8167 108° East 187 215 10,800  Level Minneapolis Center
04:44PM 47.6567 -95.7469 108° East 182 209 10,800  Level Minneapolis Center
04:45PM 47.6422 -95.6761 107° East 179 206 10,800  Level Minneapolis Center
04:47PM 47.6256 -95.6028 109° East 185 213 10,800  Level Minneapolis Center
04:48PM 47.6083 -95.5147 106° East 186 214 10,800  Level Minneapolis Center
04:49PM 47.5928 -95.4508 110° East 189 217 10,800  Level Minneapolis Center
04:50PM 47.5733 -95.3636 108° East 187 215 10,800  Level Minneapolis Center
04:51PM 47.5592 -95.2914 106° East 185 213 10,800  Level Minneapolis Center
04:52PM 47.5450 -95.2194 106° East 183 211 10,800  Level Minneapolis Center
04:53PM 47.5275 -95.1450 109° East 188 216 10,900 120 Climbing Minneapolis Center
04:54PM 47.5111 -95.0725 108° East 188 216 11,100 60 Climbing Minneapolis Center
04:55PM 47.4919 -94.9861 108° East 186 214 11,100  Level Minneapolis Center
04:56PM 47.4775 -94.9136 106° East 185 213 11,100  Level Minneapolis Center
04:57PM 47.4608 -94.8408 109° East 186 214 11,100  Level Minneapolis Center
04:58PM 47.4447 -94.7697 108° East 185 213 11,100  Level Minneapolis Center
04:59PM 47.4303 -94.6969 106° East 185 213 11,100  Level Minneapolis Center
05:00PM 47.4133 -94.6244 109° East 186 214 11,100  Level Minneapolis Center
05:01PM 47.3933 -94.5347 108° East 191 220 11,100  Level Minneapolis Center
05:02PM 47.3769 -94.4617 108° East 189 217 11,100  Level Minneapolis Center
05:03PM 47.3611 -94.3881 108° East 189 217 11,100  Level Minneapolis Center
05:04PM 47.3439 -94.3133 109° East 191 220 11,100  Level Minneapolis Center
05:05PM 47.3267 -94.2392 109° East 192 221 11,100  Level Minneapolis Center
05:06PM 47.3097 -94.1653 109° East 192 221 11,100  Level Minneapolis Center
05:07PM 47.2892 -94.0753 109° East 193 222 11,100  Level Minneapolis Center
05:08PM 47.2733 -94.0008 107° East 192 221 11,200  Climbing Minneapolis Center
05:09PM 47.2561 -93.9253 109° East 193 222 11,100 -60 Descending Minneapolis Center
05:10PM 47.2383 -93.8500 109° East 195 224 11,100  Level Minneapolis Center
05:11PM 47.2208 -93.7742 109° East 196 226 11,100 -60 Level Minneapolis Center
05:12PM 47.1986 -93.6819 109° East 198 228 11,000 -60 Descending Minneapolis Center
05:13PM 47.1819 -93.6047 108° East 199 229 11,000  Level Minneapolis Center
05:14PM 47.1642 -93.5308 109° East 197 227 11,000  Level Minneapolis Center
05:15PM 47.1461 -93.4558 109° East 196 226 11,000 -60 Level Minneapolis Center
05:17PM 47.1281 -93.3797 109° East 197 227 10,900  Descending Minneapolis Center
05:18PM 47.1072 -93.2872 108° East 199 229 11,000 -240 Climbing Minneapolis Center
05:19PM 47.0889 -93.2100 109° East 201 231 10,500 -600 Descending Minneapolis Center
05:24PM 46.9830 -92.7680 109° East 201 231 7,100 -660 Descending FlightAware
05:24PM 46.9770 -92.7420 109° East 200 230 6,800 -840 Descending FlightAware
05:25PM 46.9710 -92.7190 111° Southeast 199 229 6,600 -720 Descending FlightAware
05:25PM 46.9640 -92.6870 108° East 198 228 6,300 -660 Descending FlightAware
05:26PM 46.9570 -92.6620 112° Southeast 199 229 6,100 -600 Descending FlightAware
05:26PM 46.9510 -92.6370 109° East 198 228 5,900 -780 Descending FlightAware
05:26PM 46.9450 -92.6100 108° East 196 226 5,600 -600 Descending FlightAware
05:27PM 46.9380 -92.5830 111° Southeast 192 221 5,500 -480 Descending FlightAware
05:27PM 46.9330 -92.5590 107° East 187 215 5,300 -420 Descending FlightAware
05:27PM 46.9260 -92.5310 110° East 182 209 5,200 -420 Descending FlightAware
05:28PM 46.9210 -92.5070 107° East 177 204 5,000 -420 Descending FlightAware
05:28PM 46.9170 -92.4940 114° Southeast 176 203 5,000 -720 Level FlightAware
05:28PM 46.9100 -92.4670 111° Southeast 177 204 4,600 -840 Descending FlightAware
05:29PM 46.9030 -92.4450 115° Southeast 174 200 4,400 -600 Descending FlightAware
05:29PM 46.8960 -92.4240 116° Southeast 174 200 4,200 -780 Descending FlightAware
05:29PM 46.8890 -92.4030 116° Southeast 172 198 3,900 -780 Descending FlightAware
05:30PM 46.8820 -92.3820 116° Southeast 171 197 3,700 -600 Descending FlightAware
05:30PM 46.8750 -92.3630 118° Southeast 167 192 3,500 -720 Descending FlightAware
05:30PM 46.8660 -92.3380 118° Southeast 144 166 3,200 -660 Descending FlightAware
05:31PM 46.8600 -92.3230 120° Southeast 118 136 3,000 -600 Descending FlightAware
05:31PM 46.8560 -92.3150 126° Southeast 108 124 2,900 -720 Descending FlightAware
05:31PM 46.8520 -92.3020 114° Southeast 78 90 2,600 -600 Descending FlightAware
05:32PM 46.8500 -92.2940 110° East 72 83 2,500 -360 Descending FlightAware
05:32PM 46.8480 -92.2850 108° East 71 82 2,400 -420 Descending FlightAware
05:32PM 46.8450 -92.2740 112° Southeast 71 82 2,200 -480 Descending FlightAware